Weather in Unayzah

Saudi Arabia     26°05′47″N   43°59′37″E
В апреле 2022 года жителям России запретили посещать сайт meteo.paraplan.net по решению Генеральной прокуратуры. Аудитория сайта уменьшилась в 10 раз. Владельцы сайта не видят смысла в поддержке погодного сервера в таких условиях. Сайт будет закрыт в октябре.
temp.,
°C
wind,
m/s
gust,
m/s
humid.,
%
clouds,
%
prec.,
mm/h
press.,
hPa
HPBL,
m
25 september, sun
sun2500:00+26ne46190 0.0 101267
03:00+24nne45240 0.0 101160
06:00+23n44300 0.0 101328
09:00+29n57220 0.0 1013622
12:00+34nne78170 0.0 10112223
15:00+35nne910140 0.0 10083074
18:00+32nne711180 0.0 1010213
21:00+28nne510240 0.0 1012159
26 september, mon
mon2600:00+26nne46280 0.0 101282
03:00+24nne33336 0.0 101233
06:00+22nne223814 0.0 101411
09:00+27nne342996 0.0 1015537
12:00+32nne4620100 0.0 10121588
15:00+35nne551562 0.0 10102353
18:00+32ne44176 0.0 101129
21:00+29ne45210 0.0 101259
27 september, tue
tue2700:00+26ne44240 0.0 101346
03:00+24ene33230 0.0 101214
06:00+22nne11230 0.0 101411
09:00+29nnw12150 0.0 1014354
12:00+34nne44130 0.0 10122636
15:00+35nne44100 0.0 10103402
18:00+31n11123 0.0 101011
21:00+30se44135 0.0 101123
28 september, wed
wed2800:00+27ssw22155 0.0 101111
03:00+25w22171 0.0 101111
06:00+23nnw12200 0.0 101211
09:00+30n34140 0.0 1013421
12:00+36n4790 0.0 10103314
15:00+36nnw7890 0.0 10074035
18:00+32n57100 0.0 100879
21:00+28nne47110 0.0 101094
29 september, thu
thu2900:00+25ne33110 0.0 101016
03:00+24e22110 0.0 101011
06:00+22sw11120 0.0 101011
09:00+29w3380 0.0 1011401
12:00+34nw3890 0.0 10082580
15:00+36nnw7890 0.0 10063753
18:00+32n55130 0.0 100643
21:00+28ne45160 0.0 100851